Location: Brno
(49.2000°N, 16.6330°E)
Time: 11:30:41
(UTC+01:00)

Cosmos 332 Rocket - Visible Passes

Search period start: 23 January 2017 00:00
Search period end: 02 February 2017 00:00
Orbit: 682 x 705 km, 74.0° (Epoch: 21 January)

Date Brightness Start Highest point End Pass type
(mag) Time Alt. Az. Time Alt. Az. Time Alt. Az.
23 Jan 4.5 17:37:55 10° SW 17:42:41 56° WNW 17:47:30 10° NNE visible
23 Jan 6.6 19:22:34 10° WNW 19:24:18 12° NW 19:26:03 10° NNW visible
24 Jan 5.9 18:20:22 10° WSW 18:24:15 23° NW 18:28:11 10° N visible
25 Jan 4.7 17:19:51 10° SW 17:24:34 51° WNW 17:29:22 10° NNE visible
25 Jan 6.6 19:04:58 10° NW 19:06:16 11° NW 19:07:35 10° NNW visible
26 Jan 6.0 18:02:26 10° W 18:06:11 22° NW 18:09:58 10° N visible
27 Jan 6.7 18:47:40 10° NW 18:48:15 10° NW 18:48:50 10° NNW visible
28 Jan 6.1 17:44:31 10° W 17:48:08 20° NW 17:51:47 10° N visible
30 Jan 6.1 17:26:37 10° W 17:30:04 19° NW 17:33:34 10° N visible
